Location: Central Falls
(41.8900°N, 71.3929°W)
Time: 12:00:19
(UTC+00:00)

A-11 Canister half - Pass Details

Date: 11 December 2023
Orbit: 1512 x 1687 km, 47.2° (Epoch: 20 February)

Event Time Altitude Azimuth Distance (km) Brightness Sun altitude
Rises 09:43:46 0° 297° (WNW) 4,841 - -25.0°
Reaches altitude 10° 09:46:56 10° 293° (WNW) 3,874 - -24.5°
Exits shadow 09:52:27 36° 275° (W) 2,414 9.4 -23.5°
Maximum altitude 09:56:30 55° 220° (SW) 1,954 9.3 -22.7°
Drops below altitude 10° 10:06:15 10° 146° (SE) 3,943 11.8 -20.9°
Sets 10:09:31 0° 142° (SE) 4,930 12.5 -20.3°
